Location: Unspecified
(0.0000°N, 0.0000°E)
Time: 18:51:48
(UTC+00:00)

deb Explorer IX - Pass Details

Date: 26 November 2019
Orbit: 545 x 1105 km, 38.8° (Epoch: 05 December)

Event Time Altitude Azimuth Distance (km) Brightness Sun altitude
Rises 06:51:22 0° 301° (WNW) 3,007 ? 15.0°
Reaches altitude 10° 06:53:56 10° 295° (WNW) 2,014 ? 15.6°
Maximum altitude 06:58:18 44° 222° (SW) 806 ? 16.6°
Drops below altitude 10° 07:02:18 10° 149° (SSE) 1,834 ? 17.5°
Sets 07:04:33 0° 142° (SE) 2,706 ? 18.0°
